Home > Weather > Kerman > Past weeks

Flag for Iran Past Weather in Kerman, Iran — Yesterday and Last 2 Weeks

Now
88 °F

Sunny.


Feels Like: 84 °F
Forecast: 57 / 100 °F
Wind: 5 mph from Northeast

Location: Kerman Airport

Current Time: Jul 24, 2016 at 9:24:55 PM

Latest Report: Jul 24, 2016 at 8:30 PM


Visibility: 10 mi

Pressure: 29.89 "Hg (24.52 "Hg at 1762m altitude)

Humidity: 6%

Dew Point: 14 °F

Location of KermanLocation

Past Weather in Kerman — Graph

°F

Kerman Temperature Yesterday

Maximum temperature yesterday: 97 °F (at 2:30 PM)
Minimum temperature yesterday: 64 °F (at 5:30 AM)
Average temperature yesterday: 84 °F

High & Low Weather Summary for the Past Weeks

 TemperatureHumidityPressure
High102 °F (Jul 12, 3:20 PM)29% (Jul 16, 6:30 AM)30.09 "Hg (Jul 16, 6:30 AM)
Low59 °F (Jul 16, 4:20 AM)1% (Jul 16, 3:30 PM)29.80 "Hg (Jul 11, 5:30 PM)
Average84 °F11%29.98 "Hg
* Reported Jul 9 7:30 PM — Jul 24 7:30 PM, Kerman, Weather by CustomWeather, © 2016

Note: Actual official high and low records may vary slightly from our data, if they occured in-between our weather recording intervals... More about our weather records

Advertising

Kerman Weather History for the Previous 24 Hours

Scroll right to see more
 ConditionsComfort  
Time TempWeatherWind HumidityBarometerVisibility
7:30 PM
Sun, Jul 24
93 °FPassing clouds.9 mph5%29.89 "HgN/A
6:30 PM97 °FPassing clouds.12 mph5%29.86 "HgN/A
5:30 PM99 °FPassing clouds.12 mph5%29.86 "HgN/A
4:30 PM100 °FPassing clouds.12 mph4%29.86 "HgN/A
3:30 PM99 °FPassing clouds.14 mph4%29.89 "HgN/A
2:30 PM97 °FSunny.14 mph4%29.89 "Hg10 mi
1:30 PM97 °FSunny.7 mph3%29.92 "Hg10 mi
12:30 PM91 °FSunny.7 mph5%29.95 "Hg10 mi
11:30 AM91 °FSunny.5 mph5%29.95 "Hg10 mi
10:30 AM90 °FSunny.No wind5%29.95 "Hg10 mi
9:30 AM88 °FSunny.No wind5%29.98 "Hg10 mi
8:30 AM79 °FSunny.5 mph8%29.95 "Hg10 mi
7:30 AM72 °FSunny.5 mph14%29.95 "Hg10 mi
6:30 AM64 °FClear.No wind16%29.92 "Hg10 mi
5:30 AM63 °FClear.No wind16%29.92 "Hg10 mi
3:30 AM66 °FClear.7 mph14%29.92 "Hg10 mi
2:30 AM68 °FClear.7 mph12%29.92 "Hg10 mi
1:30 AM75 °FClear.5 mph8%29.92 "Hg10 mi
12:30 AM79 °FClear.7 mph7%29.92 "Hg10 mi
11:30 PM
Sat, Jul 23
81 °FClear.12 mph6%29.92 "Hg10 mi
10:30 PM81 °FClear.9 mph7%29.92 "Hg10 mi
9:30 PM82 °FClear.12 mph6%29.89 "Hg10 mi
Weather by CustomWeather, © 2016

See weather overviewHow to use our weather pages